Shelbyville, IN

11:04 PM EST on January 23, 2018 (GMT -0500)
Shelbyville Municipal

Weather History for KGEZ - February, 2013

Change the Weather History Date:

Tuesday, February 19, 2013

  Actual Average Record
Temperature  
Mean Temperature 36 °F 32 °F  
Max Temperature 48 °F 41 °F 65 °F (2016)
Min Temperature 24 °F 24 °F -5 °F (2015)
Degree Days  
Heating Degree Days 29 33  
Month to date heating degree days 615 655  
Since 1 July heating degree days 3518 3884  
Cooling Degree Days 0 0  
Month to date cooling degree days 0 0  
Year to date cooling degree days 0 0  
Moisture  
Dew Point 23 °F    
Average Humidity 76    
Maximum Humidity 93    
Minimum Humidity 58    
Precipitation  
Precipitation 0.10 in 0.08 in 0.14 in (2002)
Month to date precipitation 0.44 1.63  
Year to date precipitation 4.32 4.02  
Sea Level Pressure  
Sea Level Pressure 29.87 in    
Wind  
Wind Speed 21 mph (West)    
Max Wind Speed 32 mph    
Max Gust Speed 43 mph    
Visibility 9 miles    
Events Rain , Snow    
T = Trace of Precipitation, MM = Missing Value Source: NWS Daily Summary

Daily Weather History Graph

Daily Weather History Graph

Search for Another Location

Airport or City:

Trip Planner

Search our weather history database for the weather conditions in past years. The results will help you decide how hot, cold, wet, or windy it might be!

Date:

Astronomy

Feb. 19, 2013 Rise Set
Actual Time 7:29 AM EST 6:24 PM EST
Civil Twilight 7:02 AM EST 6:52 PM EST
Nautical Twilight 6:31 AM EST 7:23 PM EST
Astronomical Twilight 6:00 AM EST 7:54 PM EST
Moon 12:56 PM EST (2/19) 3:00 AM EST (2/19)
Length of Visible Light 11h 49m
Length of Day
10h 54m
Waxing Gibbous, 67% of the Moon is Illuminated
Feb 19
Waxing Gibbous
Feb 25
Full
Mar 4
Last Quarter
Mar 11
New
Mar 19
First Quarter

Hourly Weather History & Observations

Time (EST) Temp. Windchill Dew Point Humidity Pressure Visibility Wind Dir Wind Speed Gust Speed Precip Events Conditions
12:53 AM 48.0 °F - - N/A% 29.60 in 10.0 mi South 29.9 mph 42.6 mph 0.00 in Rain Light Rain
1:53 AM 46.9 °F - 45.0 °F 93% 29.60 in 9.0 mi SSW 25.3 mph 33.4 mph 0.03 in Rain Light Rain
2:14 AM 42.8 °F 34.5 °F 41.0 °F 93% 29.65 in 7.0 mi West 18.4 mph 26.5 mph 0.06 in Rain Light Rain
2:53 AM 37.0 °F 27.0 °F 36.0 °F 96% 29.68 in 7.0 mi West 18.4 mph - 0.07 in Snow Light Snow
3:32 AM 35.6 °F 23.7 °F 33.8 °F 93% 29.70 in 8.0 mi West 24.2 mph 32.2 mph 0.00 in Snow Light Snow
3:40 AM 35.6 °F 25.5 °F 33.8 °F 93% 29.70 in 9.0 mi West 17.3 mph 29.9 mph 0.00 in   Overcast
3:53 AM 34.0 °F 21.5 °F 33.1 °F 96% 29.71 in 8.0 mi West 24.2 mph 34.5 mph 0.00 in   Overcast
4:53 AM 32.0 °F 18.1 °F 30.9 °F 96% 29.76 in 10.0 mi West 27.6 mph 34.5 mph N/A   Overcast
5:07 AM 32.0 °F 20.1 °F 30.2 °F 93% 29.75 in 10.0 mi West 19.6 mph 31.1 mph N/A   Overcast
5:53 AM 30.9 °F 17.2 °F 27.0 °F 85% 29.78 in 10.0 mi West 25.3 mph 36.8 mph N/A   Overcast
6:53 AM 30.0 °F 17.9 °F 25.0 °F 82% 29.81 in 10.0 mi West 18.4 mph 27.6 mph N/A   Overcast
7:53 AM 30.9 °F 16.2 °F 23.0 °F 72% 29.82 in 10.0 mi West 29.9 mph 38.0 mph N/A   Overcast
8:53 AM 28.9 °F 18.2 °F 21.9 °F 75% 29.85 in 10.0 mi West 13.8 mph 20.7 mph N/A   Overcast
9:53 AM 28.9 °F 16.1 °F 21.0 °F 72% 29.88 in 8.0 mi West 19.6 mph 29.9 mph 0.00 in Snow Light Snow
10:23 AM 28.4 °F 14.1 °F 19.4 °F 69% 29.87 in 10.0 mi West 24.2 mph 31.1 mph 0.00 in   Overcast
10:53 AM 28.0 °F 15.3 °F 19.0 °F 69% 29.90 in 10.0 mi West 18.4 mph 28.8 mph 0.00 in   Overcast
11:22 AM 28.4 °F 15.8 °F 19.4 °F 69% 29.88 in 10.0 mi West 18.4 mph 27.6 mph N/A   Overcast
11:53 AM 28.9 °F 15.1 °F 19.0 °F 67% 29.91 in 10.0 mi West 23.0 mph 33.4 mph 0.00 in Snow Light Snow
12:06 PM 28.4 °F 15.1 °F 19.4 °F 69% 29.89 in 9.0 mi West 20.7 mph 32.2 mph 0.00 in   Overcast
1:39 PM 28.4 °F 15.4 °F 19.4 °F 69% 29.92 in 7.0 mi WSW 19.6 mph 29.9 mph 0.00 in Snow Light Snow
1:53 PM 28.0 °F 13.0 °F 17.1 °F 63% 29.94 in 7.0 mi West 26.5 mph 33.4 mph 0.00 in Snow Light Snow
2:03 PM 28.4 °F 13.8 °F 17.6 °F 64% 29.92 in 9.0 mi West 25.3 mph 33.4 mph 0.00 in Snow Light Snow
2:53 PM 30.0 °F 17.2 °F 18.0 °F 61% 29.95 in 10.0 mi West 20.7 mph 29.9 mph 0.00 in   Overcast
3:53 PM 28.9 °F 14.8 °F 17.1 °F 61% 29.98 in 9.0 mi West 24.2 mph 29.9 mph 0.00 in   Overcast
4:53 PM 28.0 °F 12.8 °F 15.1 °F 58% 30.01 in 10.0 mi West 27.6 mph 40.3 mph 0.00 in   Overcast
5:53 PM 26.1 °F 12.0 °F 16.0 °F 66% 30.05 in 9.0 mi West 20.7 mph 29.9 mph 0.00 in   Overcast
7:53 PM 26.1 °F 12.3 °F 14.0 °F 60% 30.10 in 10.0 mi West 19.6 mph 29.9 mph 0.00 in Snow Light Snow
8:53 PM 25.0 °F 11.3 °F 15.1 °F 66% 30.11 in 10.0 mi West 18.4 mph 27.6 mph 0.00 in   Overcast
9:53 PM 25.0 °F 11.3 °F 15.1 °F 66% 30.12 in 10.0 mi West 18.4 mph 24.2 mph 0.00 in   Overcast
10:53 PM 25.0 °F 11.3 °F 12.9 °F 60% 30.13 in 10.0 mi West 18.4 mph - N/A   Overcast
11:53 PM 24.1 °F 10.6 °F 12.0 °F 60% 30.14 in 10.0 mi West 17.3 mph 27.6 mph N/A   Overcast